Location: Croissy-Beaubourg
(48.8283°N, 2.6696°E)
Time: 00:45:23
(UTC+00:00)

USA 215 - Pass Details

Date: 01 June 2022
Orbit: 1099 x 1108 km, 123.0° (Epoch: 10 June)

Event Time Altitude Azimuth Distance (km) Brightness Sun altitude
Rises 02:53:28 0° 71° (ENE) 3,920 7.4 -7.9°
Reaches altitude 10° 02:56:03 10° 65° (ENE) 2,962 6.8 -7.6°
Maximum altitude 03:02:09 44° 356° (N) 1,486 4.4 -6.9°
Drops below altitude 10° 03:08:16 10° 288° (WNW) 2,967 5.3 -6.2°
Sets 03:10:52 0° 282° (WNW) 3,926 5.8 -5.9°
